sat.trackr.live / text

‹ back to catalog

TIANPING 2B

NORAD 52155 · 2022-032C

PAYLOAD ACTIVE UNKNOWN

§ Identity

Operator
Country
PRC
Launch date
2022-03-30
Launch site
JSC
Launch vehicle
Mass (kg)
RCS (m²)

External: N2YO · Heavens-Above · Gunter

§ Orbital elements

Epoch: 2026-05-25T04:08:36.434688Z

Period
95.90 min
Inclination
97.5903°
Eccentricity
0.0020880
Mean motion
15.01572651 rev/d
Perigee alt
547.6 km
Apogee alt
576.5 km
Semi-major
6,940.2 km
B*
7.4427e-5
RAAN
190.9514°
Arg perigee
236.0534°
Mean anomaly
123.8706°
Rev number
22,682

§ Raw data

TIANPING 2B1 52155U 22032C   26145.17264392  .00000908  00000+0  74427-4 0  99932 52155  97.5903 190.9514 0020880 236.0534 123.8706 15.01572651226823

JSON: /api/v1/satellites/52155 · /tle

For live sub-satellite position, see the globe view (requires WebGL).

§ Visibility from observer

Set your observer location to see the next 7 days of passes ≥ 10°. The values pass through the URL so the page stays shareable.

No JS? Fill the form by hand. The geolocation button needs JavaScript.